Dothan, AL

5:43 PM CDT on March 27, 2017 (GMT -0500)
Dothan Regional

Weather History for KDHN - August, 2014

Change the Weather History Date:

Tuesday, August 26, 2014

  Actual Average Record
Temperature  
Mean Temperature 79 °F 80 °F  
Max Temperature 92 °F 91 °F 103 °F (1938)
Min Temperature 66 °F 70 °F 61 °F (2015)
Cooling Degree Days 14 15  
Month to date cooling degree days 447 425  
Year to date cooling degree days 1801 1806  
Since 1 June cooling degree days 1416 1393  
Growing Degree Days 30 (Base 50)    
Moisture  
Dew Point 65 °F    
Average Humidity 62    
Maximum Humidity 81    
Minimum Humidity 42    
Precipitation  
Precipitation 0.00 in 0.14 in 1.67 in (1935)
Month to date precipitation 2.17 3.86  
Year to date precipitation 39.93 37.77  
Sea Level Pressure  
Sea Level Pressure 30.03 in    
Wind  
Wind Speed 7 mph (NE)    
Max Wind Speed 15 mph    
Max Gust Speed 20 mph    
Visibility 10 miles    
Events      
T = Trace of Precipitation, MM = Missing Value Source: NWS Daily Summary

Daily Weather History Graph

Daily Weather History Graph

Search for Another Location

Airport or City:

Trip Planner

Search our weather history database for the weather conditions in past years. The results will help you decide how hot, cold, wet, or windy it might be!

Date:

Astronomy

Aug. 26, 2014 Rise Set
Actual Time 6:14 AM CDT 7:12 PM CDT
Civil Twilight 5:49 AM CDT 7:37 PM CDT
Nautical Twilight 5:19 AM CDT 8:06 PM CDT
Astronomical Twilight 4:49 AM CDT 8:37 PM CDT
Moon 7:07 AM CDT (8/26) 7:41 PM CDT (8/26)
Length of Visible Light 13h 48m
Length of Day
12h 58m
New Moon, 1% of the Moon is Illuminated
Aug 26
New Moon
Sep 2
First Quarter
Sep 8
Full
Sep 15
Last Quarter
Sep 24
New

Hourly Weather History & Observations

Time (CDT) Temp. Heat Index Dew Point Humidity Pressure Visibility Wind Dir Wind Speed Gust Speed Precip Events Conditions
12:53 AM 71.1 °F - 59.0 °F 66% 30.02 in 10.0 mi ENE 6.9 mph - N/A   Clear
1:53 AM 69.1 °F - 59.0 °F 70% 30.02 in 10.0 mi ENE 4.6 mph - N/A   Clear
2:53 AM 68.0 °F - 59.0 °F 73% 30.01 in 10.0 mi ENE 4.6 mph - N/A   Clear
4:53 AM 68.0 °F - 59.0 °F 73% 30.02 in 10.0 mi ENE 5.8 mph - N/A   Clear
5:53 AM 70.0 °F - 61.0 °F 73% 30.03 in 10.0 mi ENE 5.8 mph - N/A   Clear
7:53 AM 73.9 °F - 64.9 °F 73% 30.06 in 10.0 mi NE 6.9 mph - N/A   Clear
8:53 AM 78.1 °F - 66.0 °F 66% 30.07 in 10.0 mi ENE 13.8 mph 18.4 mph N/A   Clear
10:53 AM 84.0 °F 87.0 °F 68.0 °F 58% 30.08 in 10.0 mi ENE 10.4 mph - N/A   Clear
11:53 AM 86.0 °F 88.8 °F 66.9 °F 53% 30.07 in 10.0 mi NE 12.7 mph 18.4 mph N/A   Clear
12:53 PM 89.1 °F 92.1 °F 66.9 °F 48% 30.06 in 10.0 mi ENE 12.7 mph 17.3 mph N/A   Partly Cloudy
1:53 PM 90.0 °F 92.4 °F 66.0 °F 45% 30.04 in 10.0 mi ENE 9.2 mph - N/A   Scattered Clouds
2:53 PM 91.0 °F 93.8 °F 66.0 °F 44% 30.01 in 10.0 mi ENE 9.2 mph 17.3 mph N/A   Scattered Clouds
4:53 PM 91.0 °F 93.0 °F 64.9 °F 42% 30.00 in 10.0 mi ENE 9.2 mph - N/A   Clear
5:53 PM 89.1 °F 91.0 °F 64.9 °F 45% 30.00 in 10.0 mi ENE 6.9 mph - N/A   Clear
6:53 PM 84.0 °F 86.5 °F 66.9 °F 56% 30.01 in 10.0 mi ENE 3.5 mph - N/A   Clear
7:53 PM 80.1 °F 82.1 °F 66.0 °F 62% 30.02 in 10.0 mi NE 3.5 mph - N/A   Clear
8:53 PM 79.0 °F - 66.9 °F 66% 30.03 in 10.0 mi NNE 4.6 mph - N/A   Clear
9:53 PM 75.9 °F - 66.9 °F 74% 30.04 in 10.0 mi NNE 4.6 mph - N/A   Clear
10:53 PM 73.9 °F - 66.0 °F 76% 30.04 in 10.0 mi NE 5.8 mph - N/A   Clear
11:53 PM 72.0 °F - 66.0 °F 81% 30.04 in 10.0 mi NE 3.5 mph - N/A   Clear